Regional Weather Roundup
Issued by NWS Pendleton, OR

Home | Current Version | Previous Version | Text Only | Print | Product List | Glossary On
Versions: 1 2 3 4 5 6 7 8 9 10 11 12 13 14 15 16 17 18 19 20 21 22 23 24 25 26 27 28 29 30 31 32 33 34 35 36 37 38 39 40 41 42 43 44 45 46 47 48 49 50
000
ASUS46 KPDT 212125
RWRPDT
PENDLETON REGIONAL WEATHER ROUNDUP
NATIONAL WEATHER SERVICE PENDLETON OREGON
200 PM PDT TUE OCT 21 2014

NOTE: FAIR INDICATES FEW OR NO CLOUDS BELOW 12,000 FEET WITH NO
SIGNIFICANT WEATHER AND/OR OBSTRUCTIONS TO VISIBILITY.

# INDICATES UNOFFICIAL STATION AND DATA

WAZ520-212210-
EAST SLOPES OF WASHINGTON CASCADES

CITY            SKY/WX      TMP DP  RH  WIND    PRES   REMARKS
#BUMPING DAM    N/A         48  N/A N/A CALM    N/A
#CLE ELUM HS    N/A         55  45  69  CALM    29.89S
#CLE ELUM 2NW   N/A         54  45  71  S1      N/A
#CLE ELUM LAKE  N/A         53  44  71  CALM    29.88F
#CLIFFDEL 2NW   N/A         54  42  64  SW1     N/A
#GLENWOOD       N/A         52  47  83  S3      29.97S
#MANASTASH CYN  N/A         54  39  57  CALM    29.89S
#NELSON         N/A         52  51  96  CALM    29.93S
#NELSON 3SW     N/A         49  47  93  CALM    30.11S
#NILE           N/A         57  44  62  W1      29.18F
#RONALD 2NW     N/A         53  47  80  SW3     29.79F
#SNOWDEN        N/A         50  46  86  CALM    N/A
#TEANAWAY 4NE   N/A         57  48  72  CALM    N/A
#TROUT LAKE HS  N/A         56  48  74  SW1     N/A
#TROUT LAKE 1NE N/A         54  47  77  SW7     29.98S
$$

WAZ521-212210-
SIMCOE HIGHLANDS

CITY            SKY/WX      TMP DP  RH  WIND    PRES   REMARKS
#BICKLETON HS   N/A         52  33  48  W10     30.06S
#CENTERVILLE 4W N/A         57  45  64  NW10    29.73F
#CENTERVILLE 1SWN/A         58  44  60  W14     29.93F
#GOLDENDALE     N/A         57  47  69  W8      N/A
#GOLDENDALE 1NE N/A         58  37  45  SW8     N/A
#GOLDENDALE 1S  N/A         59  46  62  W13     29.94F
#GOLDENDALE 5WNWN/A         56  46  69  NW14    29.96S
#GOODNOE HILLS  N/A         61  45  56  W15     29.90F
#LYLE 6NE       N/A         58  49  72  SW3     29.94F
$$

WAZ026-212210-
KITTITAS VALLEY

CITY            SKY/WX      TMP DP  RH  WIND    PRES   REMARKS
ELLENSBURG AP   PTCLDY      62  41  46  NW3     29.91F HAZE
#ELLENSBURG CWU N/A         59  44  57  CALM    29.87F
#ELLENSBURG 3NE N/A         59  45  60  NW6     29.91F
#ELLENSBURG     N/A         64  46  52  W1      N/A
#KITTITAS 3S    N/A         57  48  72  CALM    29.90F
#THORP 6N       N/A         54  44  69  W7      29.93S
$$

WAZ027-212210-
YAKIMA VALLEY

CITY            SKY/WX      TMP DP  RH  WIND    PRES   REMARKS
SUNNYSIDE AP    PTCLDY      64  43  46  SW13    29.93F
YAKIMA AIRPORT  PTCLDY      64  45  50  VRB7    29.92F
YAKIMA-VAGABOND PTCLDY      62  43  50  SW8     29.93F
#COWICHE 1N     N/A         58  47  67  CALM    30.07F
#DONALD 2NE     N/A         70  40  34  NE3     30.24F
#GRANDVIEW      N/A         64  39  40  NW3     29.94F
#MABTON         N/A         65  45  48  W6      29.93S
#MOXEE 2E       N/A         64  28  25  SW10    29.85F
#NACHES 2SW     N/A         59  46  62  SE3     29.90S
#OUTLOOK DOT    N/A         N/A N/A N/A SW7     N/A
#SELAH 8E       N/A         61  41  48  S7      N/A
#TERRACE HTS    N/A         64  44  48  SW1     29.89F
#TOPPENISH      N/A         64  43  46  W5      29.84S
#WAPATO 4NE     N/A         70  40  34  NE3     30.24F
#W YAKIMA       N/A         60  47  62  E2      29.91F
#WHITE SWAN 5E  N/A         65  44  46  SW16G25 29.92F
#WILEY CITY 3W  N/A         63  48  58  W6      29.96S
$$

WAZ028-212210-
LOWER COLUMBIA BASIN...WASHINGTON

CITY            SKY/WX      TMP DP  RH  WIND    PRES   REMARKS
HANFORD         MOSUNNY     66  42  42  W14     29.92S
PASCO           SUNNY       66  48  52  SW20    29.95F
PROSSER AWOS    N/A         66  43  43  SW12    29.96F
RICHLAND AWOS   PTCLDY      68  43  40  W12     29.94F
#BASIN CITY 5SW N/A         64  49  58  W2      29.93S
#BENTON CITY    N/A         64  44  48  W5      29.84S
#CONNELL 5N     N/A         62  51  67  S7      29.92S
#CONNELL 5NW    N/A         61  51  70  SW7     29.88F
#ELTOPIA        N/A         66  50  56  S9      29.90F
#ELTOPIA 6NW    N/A         62  51  67  SW10    28.90F
#KENNEWICK 3S   N/A         63  48  58  S6      29.94F
#PASCO-BROADMOORN/A         67  49  52  S7      29.82F
#PATERSON       N/A         65  48  54  W12     29.95S
#PROSSER        N/A         65  39  38  W7      29.93S
#SAGEMOOR 2W    N/A         63  53  70  S13     29.78F
#TOUCHET 2S     N/A         65  48  54  W8      29.94S
#WEST PASCO     N/A         65  50  58  SW6     29.94
$$

WAZ029-212210-
FOOTHILLS OF THE BLUES...WASHINGTON

CITY            SKY/WX      TMP DP  RH  WIND    PRES   REMARKS
WALLA WALLA AP  CLOUDY      62  44  52  SW14    29.98S
#LOWDEN 2SE     N/A         64  47  54  W12     29.93F
#PLEASANT VIEW 1N/A         59  45  60  SW13G26 29.98R
#PRESCOTT       N/A         62  46  56  CALM    29.95S
#SUDBURY        N/A         65  N/A N/A CALM    N/A
#WHITMAN COLLEGEN/A         62  46  56  W5      30.01S
#WAITSBURG 8N   N/A         60  32  35  S10     29.88F
#WALLA WALLA 5E N/A         62  43  50  CALM    N/A
#WALLA WALLA U  N/A         63  47  56  CALM    29.96S
#WHITMAN MISSIONN/A         62  47  58  W7      29.97F
$$

WAZ030-212210-
BLUE MOUNTAINS...WASHINGTON

CITY            SKY/WX      TMP DP  RH  WIND    PRES   REMARKS
$$

ORZ009-041-WAZ024-212210-
COLUMBIA RIVER GORGE

CITY            SKY/WX      TMP DP  RH  WIND    PRES   REMARKS
HOOD RIVER AP   CLOUDY      59  50  72  W6      29.98F
THE DALLES AP   MOCLDY      63  48  58  NW10    29.97F HAZE
#ARLINGTON AIRPON/A         63  46  54  W9      29.98S
#ARLINGTON HS   N/A         66  44  45  CALM    29.86F
#CELILO DOT     N/A         61  43  51  SW6     N/A
#LYLE           N/A         62  52  70  NW5     29.98F
#MARYHILL 2W    N/A         63  48  58  W5      N/A
#MOSIER 1S      N/A         59  45  60  CALM    N/A
#MURDOCK        N/A         62  53  72  W6      29.98F
#RUFUS DOT      N/A         67  40  37  W10     N/A

$$

ORZ510-212210-
NORTH CENTRAL OREGON

CITY            SKY/WX      TMP DP  RH  WIND    PRES   REMARKS
#CHENOWITH 1W   N/A         55  48  77  NW14    N/A
#COW CYN RST AREN/A         54  39  57  S10     N/A
#DUFUR 9E       N/A         54  46  74  NW7     30.02S
#GRASS VALLEY   N/A         57  41  55  W1      N/A
#GRASS VALLEY 1SN/A         58  43  57  W10     30.01S
#KENT DOT       N/A         56  32  40  SW15    N/A
#MAUPIN SCHOOL  N/A         64  43  46  W7      28.86F
#MORO SCHOOL    N/A         61  47  60  S9      29.99F
#SHANIKO 5WSW   N/A         51  30  44  SW18    N/A
#SHANIKO 4NW    N/A         53  37  54  SW3     30.00F
#TYGH VALLEY 2NEN/A         61  44  53  SW7     29.96F
#WAPANITIA AIRPON/A         59  41  51  W7      29.99F
#WASCO DOT      N/A         62  42  48  NW8     N/A
#WASCO 5NE      N/A         60  46  60  N2      29.97F
$$

ORZ511-212210-
CENTRAL OREGON

CITY            SKY/WX      TMP DP  RH  WIND    PRES   REMARKS
BEND AIRPORT    PTCLDY      54  36  50  SW15    30.04F
MADRAS AIRPORT  CLOUDY      57  39  51  W13     30.03F
PRINEVILLE AP   CLOUDY      54  37  52  SW6     30.03F
REDMOND AIRPORT MOCLDY      55  35  47  SW7     30.01F
#BEND 6E        N/A         54  35  48  CALM    29.97F
#BEND 1SW       N/A         51  40  66  SW2     N/A
#BEND-KIM LN    N/A         54  41  61  SW7     30.01S
#CROOKED RVR RANN/A         58  40  51  CALM    30.01F
#CULVER         N/A         57  39  51  SW7     29.98F
#LAKE BILLY CHINN/A         56  14  19  SW15    30.07S
#POWELL BUTTE 3EN/A         56  39  53  SW9     N/A
#POWELL BUTTE   N/A         57  38  49  W8      29.66F
#PRINEVILLE 3N  N/A         53  40  61  CALM    29.99F
#WARM SPRINGS   N/A         64  42  45  SE7     29.96F


ORZ509-212210-
EAST SLOPES OF OREGON CASCADES

CITY            SKY/WX      TMP DP  RH  WIND    PRES   REMARKS
#BLUE BOX PASS  N/A         45  -6  11  S5      N/A
#CAMP SHERMAN   N/A         56  41  57  VRB2    30.00F
#LA PINE DOT    N/A         50  32  50  SW8     N/A
#LA PINE 4NW    N/A         48  37  65  SW2     30.11S
#LAVA BUTTE DOT N/A         49  34  56  SE3     N/A
#SISTERS AIRPOR N/A         54  42  64  N12     29.91S
#SISTERS ODOT   N/A         54  N/A N/A S6      N/A
#SISTERS 1NW    N/A         55  36  49  NW12    N/A
#SISTERS 3N     N/A         55  37  51  NW3     30.04S
#SUNRIVER       N/A         51  40  66  SW3     29.94F
#SUNRIVER AP    N/A         48  39  71  W7      30.03S
#TUMALO 3W      N/A         54  36  50  SW7     29.90F
#WANOGA BUTTE D N/A         37  37  100 W8      N/A

$$

ORZ044-212210-
LOWER COLUMBIA BASIN...OREGON

CITY            SKY/WX      TMP DP  RH  WIND    PRES   REMARKS
HERMISTON       MOSUNNY     65  44  46  W16     29.97F
#BOARDMAN SCHOOLN/A         65  45  48  W3      29.96S
#BOARDMAN 3W    N/A         67  46  47  SW7     29.65S
#BOARDMAN 8SW   N/A         65  47  52  W10     29.96F
#ECHO 8SW       N/A         64  43  46  W5      29.94F
#IONE SCHOOL    N/A         62  40  44  W10     29.96F
#IRRIGON 4NW    N/A         66  48  52  SW15    N/A
#UMATILLA SCHOOLN/A         64  52  65  NW10    30.00R
#UMATILLA       N/A         65  44  46  SW10    29.94F
$$

ORZ507-212210-
NORTHERN FOOTHILLS OF THE BLUES

CITY            SKY/WX      TMP DP  RH  WIND    PRES   REMARKS
PENDLETON AIRPT PTCLDY      62  43  50  W15     29.98F
#ADAMS 3WNW     N/A         60  45  58  SW12    29.96F
#ATHENA         N/A         59  43  55  W13     29.98F
#CAYUSE         N/A         59  44  57  W10     29.97S
#HELIX SCHOOL   N/A         60  43  53  W12     29.96S
#HELIX 3N       N/A         59  43  55  W22     29.96R
#HELIX 6SW      N/A         59  42  53  W16     29.98S
#HOLDMAN 5SE    N/A         61  45  56  W12     29.98F
#HOLDMAN 6E     N/A         59  43  55  NE15    29.78S
#M-F FERNDALE   N/A         65  46  50  CALM    29.98S
#M-F GROVE ELEM N/A         63  40  43  W7      29.96F
#M-FREEWATER 5SEN/A         62  44  52  SW8     29.98S
#PENDLETON DNTN N/A         63  41  44  W3      28.79S
#PDT AQUATIC CTRN/A         65  47  52  W7      29.97S
#PDT SUNRIDGE   N/A         62  44  52  W8      29.99F
#PENDLETON 7NW  N/A         60  46  60  W10     27.43F
#PILOT ROCK     N/A         63  40  43  W2      30.00F
#TUTUILLA       N/A         61  43  51  W8      29.98F
#UMAPINE 2E     N/A         63  47  56  W3      29.95S
#WESTON SCHOOL  N/A         57  40  53  NW9     29.94F

$$

ORZ508-212210-
SOUTHERN FOOTHILLS OF THE BLUES

CITY            SKY/WX      TMP DP  RH  WIND    PRES   REMARKS
LEXINGTON       PTCLDY      63  37  38  W14     30.00F
#AJAX           N/A         58  35  42  S12     29.92F
#CONDON SCHOOL  N/A         55  41  59  CALM    29.96S
#CONDON 5W      N/A         53  38  57  SW12    29.97F
#FOSSIL SCHOOL  N/A         57  40  53  SW7     29.98F
#HEPPNER EOC    N/A         61  38  42  W12     29.93F
#HEPPNER 4NE    N/A         57  39  51  SW14    29.98S
#LEXINGTON 2SE  N/A         64  41  43  W7      29.97F
#MIKKALO        N/A         61  39  44  W8      29.97F
#OLEX 4N        N/A         62  43  50  SW15G25 29.96F
#RUGGS 5NE      N/A         56  37  49  W10     30.17S
#RUGGS 2SW      N/A         55  39  55  W8      30.00F

$$

ORZ502-503-212210-
BLUE MOUNTAINS

CITY            SKY/WX      TMP DP  RH  WIND    PRES   REMARKS
MEACHAM         CLOUDY      49  42  77  CALM    30.02S
#BATTLE MTN DOT N/A         51  40  66  SW2     N/A
#HARDMAN 10S    N/A         49  37  63  S5      30.07S
#HEPPNER 15SE   N/A         53  36  52  SE2     29.91S
#LADD CYN SMT   N/A         53  33  46  N2      N/A
#LADD CREEK ODOTN/A         55  37  51  N2      N/A
#LONG CREEK HS  N/A         53  39  59  NW6     29.98S
#N POWDER DOT   N/A         56  38  51  NW8     N/A
#PIKES PEAK     N/A         48  39  71  SW22G29 27.99S WCI 41
#TROY SCHOOL    N/A         63  42  46  S6      29.79S
#UKIAH          N/A         53  40  61  N3      30.02S
#WESTON 4E      N/A         52  41  66  SW9     29.93S
$$

ORZ505-212210-
JOHN DAY BASIN

CITY            SKY/WX      TMP DP  RH  WIND    PRES   REMARKS
JOHN DAY        CLOUDY      56  35  45  SW9     30.05S
#JOHN DAY KJDY  N/A         58  40  51  SW1     30.22R
#DAYVILLE SCHOOLN/A         57  37  47  S14     30.00F
#MONUMENT HS    N/A         60  38  44  SW1     30.02F
#MT. VERNON 5SE N/A         52  36  54  S5      30.00S
#WINLOCK        N/A         57  42  57  N13     30.09F
$$

ORZ506-212210-
OCHOCO AND JOHN DAY HIGHLANDS

CITY            SKY/WX      TMP DP  RH  WIND    PRES   REMARKS
#BUCK CREEK DOT N/A         51  43  74  SW14    N/A
#HORSE RIDGE DO N/A         52  34  50  SW12    N/A
#KEYES SMT DOT  N/A         49  33  54  W6      N/A
#PAULINA SCHOOL N/A         53  36  52  SE5     30.03F
#PINE MTN OBS   N/A         40  33  76  W2      N/A
#PRAIRIE CITY   N/A         57  35  43  W5      30.00F
#SENECA         N/A         48  N/A N/A W1      N/A
#SENECA 9NW     N/A         46  37  71  CALM    30.00R
$$

ORZ049-212210-
GRANDE RONDE VALLEY

CITY            SKY/WX      TMP DP  RH  WIND    PRES   REMARKS
LA GRANDE       MOCLDY      59  30  33  NW5     30.00S
#COVE           N/A         53  43  69  N5      29.94S
#COVE SCHOOL    N/A         54  42  64  CALM    29.99S
#COVE 6NW       N/A         52  40  63  CALM    30.02R
#ELGIN 3N       N/A         56  38  51  S14     29.73S
#ELGIN 1E       N/A         56  40  55  CALM    N/A
#IMBLER SCHOOL  N/A         63  35  35  SW3     29.84S
#ISLAND CITY 4N N/A         57  53  86  N3      29.97S
#LADD CYN DOT   N/A         56  37  49  NW3     N/A
#UNION 1S       N/A         56  40  55  CALM    29.88S
$$

ORZ050-212210-
WALLOWA COUNTY

CITY            SKY/WX      TMP DP  RH  WIND    PRES   REMARKS
JOSEPH AIRPORT  MOCLDY      55  34  45  CALM    30.01S
#ENTERPRISE HS  N/A         54  36  50  NW5     29.98F
#IMNAHA SCHOOL  N/A         59  39  47  S3      29.88F
#IMNAHA 10S     N/A         56  42  59  NE1     29.97F
#JOSEPH 3N      N/A         52  33  48  CALM    30.02S
#JOSEPH 3W      N/A         49  35  58  CALM    29.85S
#LOSTINE        N/A         57  37  47  CALM    29.75R
#MT HOWARD 8000 N/A         32  30  92  W1      30.02S
#PROMISE 1S     N/A         50  40  68  SE6     30.07R
#SHEEP RDG 7000 N/A         35  29  78  CALM    29.97R
#WALLOWA SCHOOL N/A         56  39  53  CALM    30.86S



$$



USA.gov is the U.S. government's official web portal to all federal, state and local government web resources and services.